Tracking 33446 objects as of 10-Mar-2026
HD Live streaming from Space Station
objects crossing your sky now

SDA_1669

Track SDA_1669 now!
10-day predictions


NORAD ID: 65979
Int'l Code: 2025-230F
Perigee: 948.9 km
Apogee: 956.0 km
Inclination: 81.3 °
Period: 104.0 minutes
Semi major axis: 7323 km
RCS: Unknown
Launch date: October 15, 2025
Source: United States (US)
Launch site: AIR FORCE WESTERN TEST RANGE (AFWTR)
Your satellite tracking list
Your tracking list is empty




NASA's NSSDC Master Catalog

Two Line Element Set (TLE):
1 65979U 25230F   26069.11354281  .00000230  00000-0  19198-3 0  9992
2 65979  81.3001 303.5047 0004830 103.7052 256.4643 13.85260050 20109
Source of the keplerian elements: AFSPC